Location: Unspecified
(47.5840°N, 122.3000°W)
Time: 13:11:07
(UTC+00:00)

IRIDIUM 114 - Pass Details

Date: 16 March 2026
Orbit: 776 x 779 km, 86.4° (Epoch: 18 April)

Event Time Altitude Azimuth Distance (km) Brightness Sun altitude
Exits shadow 03:43:32 13° 59° (ENE) 2,142 6.2 -15.6°
Drops below altitude 10° 03:44:51 10° 45° (NE) 2,341 6.5 -15.8°
Sets 03:48:20 0° 21° (NNE) 3,274 7.5 -16.4°
